[[{"header":{"parameterUnit":"m.s-1","parameterCategory":1,"la1":30.2991,"la2":30.254,"lo1":-89.0895,"lo2":-89.0444,"dy":0.0017,"dx":0.0017,"nx":28,"ny":28,"refTime":"2025-04-20T21:00:00:Z","depth":0,"parameterNumber":2,"parameterNumberName":"U-component_of_WINDS"},"data":[0,0,0,0,0,0,0,0,0,0,0,0,0,0,0,0,0,0,0,0,0,0,0,0,0,0,0,0,0,0,0,0,0,0,0,0,0,0,0,0,0,0,0,0,0,0,0,0,0,0,0,0,0,0,0,0,0,0,-2.9424,-2.9424,0,-2.939,-2.9389,-2.9389,-2.9318,-2.9317,-2.9315,-2.9314,-2.928,-2.928,-2.9281,0,0,0,0,0,0,0,0,0,0,0,0,0,-2.9432,-2.9432,-2.9424,-2.9424,-2.9423,-2.939,-2.9389,-2.9389,-2.9318,-2.9317,-2.9315,-2.9313,-2.928,-2.928,-2.9281,0,0,0,0,0,0,0,0,0,0,0,0,0,-2.9416,-2.9432,-2.9424,-2.9384,-2.938,-2.939,-2.9389,-2.9389,-2.9319,-2.9317,-2.9315,-2.9313,-2.928,-2.928,-2.9281,-2.9327,0,0,-2.9283,-2.9283,0,0,0,0,0,0,0,0,-2.9417,-2.9416,-2.9391,-2.9387,-2.9383,-2.9356,-2.9379,-2.9368,-2.9319,-2.9342,-2.9314,-2.9312,-2.9307,-2.9305,-2.9303,-2.9325,-2.9324,-2.9283,-2.9283,-2.9283,-2.9283,0,0,0,0,0,0,0,-2.9418,-2.9417,-2.9411,-2.939,-2.9386,-2.9369,-2.9364,-2.9377,-2.9337,-2.934,-2.9335,-2.9332,-2.9304,-2.9303,-2.9302,-2.9323,-2.9283,-2.9283,-2.9283,-2.9284,-2.9381,-2.9383,0,0,0,0,0,0,-2.9425,-2.9418,-2.9412,-2.9409,-2.9395,-2.937,-2.9365,-2.9367,-2.9337,-2.933,-2.9334,-2.9329,-2.9303,-2.9301,-2.9301,-2.9351,-2.9283,-2.9284,-2.9284,-2.9379,-2.9381,-2.9384,0,0,0,0,0,0,-2.9425,-2.9425,-2.9413,-2.9413,-2.941,-2.9372,-2.9375,-2.9367,-2.9365,-2.9332,-2.9324,-2.9339,-2.9301,-2.93,-2.9321,-2.9349,-2.9284,-2.9285,-2.9376,-2.938,-2.9383,-2.9455,0,0,0,0,0,0,-2.9426,-2.9426,-2.9442,-2.9413,-2.941,-2.9433,-2.9377,-2.9368,-2.9367,-2.936,-2.9335,-2.9329,-2.9299,-2.932,-2.9321,-2.9349,-2.9285,-2.9373,-2.9378,-2.9382,-2.9449,-2.946,-2.9469,0,0,0,0,0,-2.9426,-2.9464,-2.9443,-2.9443,-2.943,-2.9435,-2.9433,-2.9398,-2.9369,-2.9386,-2.9364,-2.933,-2.9347,-2.9323,-2.9323,-2.9352,-2.9371,-2.9376,-2.9381,-2.9445,-2.9458,-2.9469,0,0,0,0,0,0,-2.9497,-2.9459,-2.9436,-2.9465,-2.9454,-2.9423,-2.9442,-2.9413,-2.941,-2.9403,-2.9361,-2.9356,-2.9382,-2.937,-2.9344,-2.9395,-2.9354,-2.9359,-2.9402,-2.9414,-2.9423,-2.9425,-2.9286,0,0,0,0,0,-2.9516,-2.9523,-2.949,-2.9519,-2.9515,-2.948,-2.9481,-2.9455,-2.9442,-2.9437,-2.9416,-2.9405,-2.9408,-2.9411,-2.9411,-2.9448,-2.9442,-2.9468,-2.9478,-2.9486,-2.9491,-2.9509,-2.952,-2.94,-2.94,-2.94,0,0,-2.9555,-2.9536,-2.9542,-2.9533,-2.9521,-2.9529,-2.9476,-2.9487,-2.9493,-2.9438,-2.9456,-2.9442,-2.9426,-2.9456,-2.9467,-2.9446,-2.9523,-2.9493,-2.95,-2.9499,-2.9515,-2.9527,-2.9537,-2.9404,-2.9403,-2.9402,0,0,-2.963,-2.9617,-2.9639,-2.9628,-2.9611,-2.9588,-2.9594,-2.9568,-2.9556,-2.9573,-2.9532,-2.954,-2.9545,-2.9536,-2.9532,-2.9606,-2.9574,-2.9608,-2.9658,-2.9676,-2.9685,-2.9694,-2.9719,-2.9729,-2.9613,-2.9613,-2.9613,0,-2.9681,-2.9691,-2.9654,-2.9668,-2.9665,-2.9616,-2.9639,-2.9631,-2.9615,-2.9614,-2.9591,-2.9597,-2.9583,-2.9609,-2.9627,-2.9626,-2.9631,-2.9609,-2.9687,-2.9695,-2.9702,-2.9725,-2.9735,-2.9617,-2.9616,-2.9616,-2.9616,0,-2.9754,-2.9763,-2.9783,-2.9768,-2.9768,-2.9786,-2.9753,-2.9757,-2.9732,-2.9712,-2.9731,-2.9713,-2.9709,-2.9714,-2.969,-2.9737,-2.9724,-2.9695,-2.9652,-2.9718,-2.9739,-2.9748,-2.9623,-2.9621,-2.962,-2.9619,0,0,-2.987,-2.9836,-2.9844,-2.9837,-2.9815,-2.9821,-2.9838,-2.9834,-2.9838,-2.983,-2.9842,-2.9849,-2.9822,-2.9818,-2.9793,-2.9809,-2.9868,-2.9777,-2.9776,-2.9793,-2.9917,-2.9938,-2.9949,-2.9848,-2.9849,-2.985,-2.9918,0,-2.9939,-2.9964,-2.9932,-2.9965,-2.9972,-2.9927,-2.9941,-2.993,-2.9912,-2.9916,-2.9897,-2.9902,-2.9866,-2.9863,-2.9878,-2.9858,-2.9892,-2.9853,-2.9858,-2.9859,-2.9861,-2.9961,-2.9982,-3.0047,-2.9927,-2.9928,-2.9929,0,-3.0022,-3.0017,-3.005,-3.0027,-3.0028,-3.0042,-3.0036,-3.0041,-3.0027,-3.0013,-3.001,-2.998,-2.9995,-2.9955,-2.9976,-2.995,-2.9951,-2.9942,-2.9943,-2.9941,-2.9896,-2.9959,-3.0067,-3.0076,-2.9942,-2.9941,-2.994,0,-3.0101,-3.0104,-3.0123,-3.0119,-3.0093,-3.0103,-3.0093,-3.0077,-3.0077,-3.0073,-3.0072,-3.007,-3.0069,-3.0068,-3.0039,-3.0013,-3.0063,-3.0021,-3.0051,-3.0052,-3.0061,-3.0061,-3.0169,-3.0066,-3.0066,-3.0066,-3.0065,0,-3.018,-3.0202,-3.0159,-3.0171,-3.0194,-3.0158,-3.0182,-3.0167,-3.0155,-3.0163,-3.0126,-3.0135,-3.0096,-3.0102,-3.0079,-3.0099,-3.01,-3.0088,-3.0082,-3.009,-3.0092,-3.0089,-3.0083,-3.0068,-3.0067,-3.0067,-3.0067,0,-3.0272,-3.0244,-3.0262,-3.0236,-3.023,-3.0248,-3.0226,-3.0237,-3.0217,-3.0229,-3.023,-3.02,-3.0204,-3.0175,-3.0175,-3.016,-3.019,-3.0177,-3.0194,-3.0189,-3.0221,-3.0217,-3.0329,-3.0342,-3.0233,-3.0234,-3.0235,0,-3.0322,-3.0338,-3.0314,-3.0317,-3.0308,-3.0314,-3.0313,-3.028,-3.0281,-3.0268,-3.028,-3.0282,-3.0281,-3.029,-3.0268,-3.0268,-3.0253,-3.0293,-3.0253,-3.0261,-3.0252,-3.025,-3.0251,-3.03,-3.0301,-3.0303,-3.0303,0,-3.0415,-3.0401,-3.0402,-3.0398,-3.0399,-3.0395,-3.0388,-3.0393,-3.0356,-3.036,-3.0364,-3.0363,-3.0363,-3.0365,-3.036,-3.035,-3.0321,-3.0317,-3.0323,-3.0331,-3.034,-3.0334,-3.0215,-3.0314,-3.0313,-3.0312,-3.0311,-3.0311,-3.0487,-3.0498,-3.0483,-3.0485,-3.0477,-3.0472,-3.048,-3.0462,-3.0465,-3.0461,-3.0442,-3.045,-3.0437,-3.0428,-3.0421,-3.0427,-3.0408,-3.0418,-3.042,-3.0422,-3.0427,-3.0341,-3.0426,-3.0426,-3.0425,-3.0425,-3.0425,0,-3.0576,-3.0565,-3.0567,-3.0559,-3.0561,-3.0534,-3.0526,-3.0529,-3.0536,-3.0527,-3.0527,-3.0532,-3.0534,-3.0513,-3.0512,-3.0521,-3.0508,-3.0522,-3.052,-3.0518,-3.0445,-3.0438,-3.0533,-3.0533,-3.0533,-3.0533,-3.0533,-3.0533,-3.0623,-3.0641,-3.0625,-3.0639,-3.0627,-3.0634,-3.0631,-3.0627,-3.0619,-3.0626,-3.0627,-3.0614,-3.06,-3.0598,-3.0599,-3.0593,-3.0594,-3.0612,-3.0602,-3.0534,-3.0523,-3.0513,-3.0506,-3.0613,-3.0613,-3.0673,-3.0674,-3.0674]},{"header":{"parameterUnit":"m.s-1","parameterCategory":1,"la1":30.2991,"la2":30.254,"lo1":-89.0895,"lo2":-89.0444,"dy":0.0017,"dx":0.0017,"nx":28,"ny":28,"refTime":"2025-04-20T21:00:00:Z","depth":0,"parameterNumber":3,"parameterNumberName":"V-component_of_WINDS"},"data":[0,0,0,0,0,0,0,0,0,0,0,0,0,0,0,0,0,0,0,0,0,0,0,0,0,0,0,0,0,0,0,0,0,0,0,0,0,0,0,0,0,0,0,0,0,0,0,0,0,0,0,0,0,0,0,0,0,0,1.99,1.99,0,1.9927,1.9928,1.9928,1.9899,1.9898,1.9897,1.9896,1.9923,1.9925,1.9927,0,0,0,0,0,0,0,0,0,0,0,0,0,1.9825,1.9827,1.99,1.99,1.9901,1.9927,1.9928,1.9928,1.9899,1.9898,1.9897,1.9895,1.9923,1.9925,1.9927,0,0,0,0,0,0,0,0,0,0,0,0,0,1.9856,1.9827,1.99,1.989,1.9889,1.9927,1.9928,1.9928,1.99,1.9898,1.9896,1.9895,1.9922,1.9924,1.9927,1.9977,0,0,1.9935,1.9936,0,0,0,0,0,0,0,0,1.9854,1.9858,1.9891,1.989,1.989,1.9908,1.9911,1.9944,1.99,1.9896,1.9896,1.9894,1.992,1.9922,1.9931,1.9978,1.9979,1.9935,1.9937,1.9938,1.9939,0,0,0,0,0,0,0,1.9852,1.9857,1.9911,1.9891,1.9891,1.9884,1.9887,1.9917,1.9916,1.9896,1.9894,1.9898,1.9919,1.9928,1.9931,1.9979,1.9935,1.9938,1.9939,1.994,2.0072,2.0074,0,0,0,0,0,0,1.9851,1.9856,1.991,1.9912,1.9867,1.9887,1.989,1.9904,1.9916,1.9916,1.9899,1.9896,1.9925,1.9928,1.9932,1.9993,1.9938,1.9941,1.9942,2.007,2.0073,2.0075,0,0,0,0,0,0,1.9849,1.9856,1.9909,1.9883,1.9889,1.989,1.9906,1.9905,1.9915,1.9918,1.9918,1.9909,1.9924,1.9929,1.9967,1.9994,1.9942,1.9944,2.0068,2.0071,2.0074,2.0114,0,0,0,0,0,0,1.9847,1.9856,1.9873,1.9884,1.9891,1.9942,1.9908,1.9907,1.992,1.9916,1.9928,1.9928,1.9923,1.9963,1.9969,1.9996,1.9946,2.0066,2.0069,2.0073,2.011,2.0118,2.0124,0,0,0,0,0,1.9845,1.9883,1.9875,1.9881,1.9913,1.9944,1.9948,1.9941,1.9922,1.9941,1.9944,1.9927,1.999,1.9967,1.9974,2.0002,2.0064,2.0068,2.0072,2.0107,2.0116,2.0124,0,0,0,0,0,0,1.9874,1.9884,1.9875,1.9917,1.993,1.9939,1.9962,1.9951,1.9969,1.9965,1.9956,1.9959,2.0,2.0005,1.9979,2.0053,2.0024,2.003,2.0048,2.0057,2.0064,2.0062,1.9948,0,0,0,0,0,1.9886,1.991,1.9917,1.9954,1.9961,1.9961,1.9973,1.9968,1.9981,1.9986,1.9991,2.0004,2.0027,2.0042,2.0063,2.0111,2.0115,2.0135,2.0142,2.0147,2.0153,2.0182,2.0191,2.0089,2.0089,2.0089,0,0,1.991,1.9918,1.9933,1.996,1.9969,1.9995,1.9965,1.9992,2.0012,1.999,2.0026,2.0032,2.0046,2.009,2.011,2.0095,2.0182,2.0153,2.0158,2.016,2.0187,2.0197,2.0205,2.0092,2.0091,2.0091,0,0,1.9967,1.9975,2.0008,2.0018,2.0034,2.0034,2.0042,2.0054,2.0056,2.0094,2.0079,2.0102,2.0141,2.0152,2.0164,2.023,2.0217,2.0237,2.0274,2.0302,2.031,2.0317,2.0343,2.0352,2.0242,2.0242,2.0243,0,1.9994,2.0032,2.0026,2.0056,2.0069,2.0052,2.0086,2.0097,2.0118,2.0128,2.0112,2.0163,2.0171,2.0219,2.0236,2.0245,2.0256,2.0235,2.031,2.0317,2.0323,2.0348,2.0357,2.0245,2.0245,2.0244,2.0244,0,2.0066,2.0093,2.0118,2.0141,2.0157,2.0189,2.0189,2.0206,2.02,2.0203,2.0243,2.0253,2.0277,2.0288,2.0282,2.0337,2.0328,2.0311,2.0282,2.0336,2.0358,2.0367,2.0248,2.0248,2.0247,2.0246,0,0,2.0139,2.0161,2.0171,2.0182,2.02,2.0221,2.0254,2.0278,2.0294,2.0311,2.0339,2.0374,2.036,2.0373,2.0368,2.0393,2.0448,2.0373,2.0374,2.0388,2.0512,2.0525,2.0535,2.044,2.0441,2.0443,2.0511,0,2.0198,2.0255,2.0252,2.0305,2.0332,2.0318,2.0347,2.0361,2.0366,2.0389,2.0394,2.042,2.0398,2.0406,2.043,2.0436,2.0473,2.0431,2.0467,2.0468,2.0464,2.0547,2.056,2.0624,2.052,2.0521,2.0522,0,2.0273,2.0294,2.035,2.0368,2.0378,2.0404,2.0429,2.0451,2.0469,2.047,2.0487,2.0479,2.0514,2.0485,2.0534,2.0505,2.052,2.0526,2.0528,2.0531,2.0498,2.0553,2.0643,2.0654,2.0536,2.0535,2.0534,0,2.0323,2.0365,2.0405,2.0416,2.0436,2.0455,2.0464,2.048,2.0497,2.0518,2.0529,2.0554,2.0568,2.0589,2.0589,2.0567,2.0639,2.0609,2.0643,2.0643,2.0658,2.0657,2.0753,2.0667,2.0666,2.0666,2.0666,0,2.0389,2.0424,2.0429,2.0453,2.0494,2.0491,2.0532,2.0539,2.0554,2.0581,2.0571,2.0596,2.0595,2.0621,2.0622,2.0664,2.067,2.0673,2.0673,2.0674,2.0674,2.0684,2.0679,2.0669,2.0668,2.0668,2.0667,0,2.0451,2.0455,2.0498,2.0515,2.0521,2.055,2.0565,2.0589,2.0594,2.0629,2.0637,2.0644,2.0675,2.0678,2.0713,2.0714,2.0765,2.0759,2.0759,2.0758,2.0792,2.079,2.0898,2.0913,2.0816,2.0817,2.0818,0,2.0492,2.052,2.0541,2.0559,2.057,2.0598,2.0616,2.0616,2.0635,2.0659,2.0681,2.0712,2.0736,2.0786,2.0795,2.0823,2.0819,2.0855,2.0823,2.0825,2.0821,2.082,2.0824,2.0861,2.0862,2.0863,2.0864,0,2.0567,2.0569,2.0594,2.0622,2.0644,2.0665,2.0685,2.0701,2.0704,2.0726,2.0758,2.0777,2.0815,2.0846,2.0874,2.0885,2.0876,2.0874,2.0884,2.0886,2.0885,2.0888,2.0777,2.0872,2.0871,2.087,2.087,2.087,2.0621,2.0646,2.0666,2.0696,2.0712,2.0732,2.0757,2.0766,2.0793,2.0824,2.0823,2.0859,2.088,2.0917,2.093,2.0959,2.0947,2.096,2.0964,2.0967,2.0972,2.0881,2.0964,2.0964,2.0964,2.0964,2.0963,0,2.0696,2.0709,2.0737,2.0767,2.0792,2.0782,2.0805,2.0826,2.0859,2.0878,2.0904,2.0942,2.0974,2.0986,2.1017,2.1038,2.1035,2.1047,2.1045,2.1048,2.098,2.0969,2.1049,2.1049,2.1049,2.1049,2.1049,2.1049,2.0738,2.0781,2.0786,2.0838,2.085,2.0887,2.0901,2.092,2.0937,2.0981,2.1007,2.1016,2.1034,2.1066,2.1095,2.1098,2.1111,2.1124,2.1126,2.1061,2.1053,2.1044,2.1035,2.1127,2.1127,2.1192,2.1193,2.1193]}]]